Location: Chrome
(40.5765°N, 74.2163°W)
Time: 12:05:40
(UTC+00:00)

SL-4 R/B - Pass Details

Date: 06 December 2019
Orbit: 428 x 667 km, 51.6° (Epoch: 23 January)

Event Time Altitude Azimuth Distance (km) Brightness Sun altitude
Rises 22:14:39 0° 247° (WSW) 2,472 7.9 -8.5°
Reaches altitude 10° 22:16:45 10° 253° (WSW) 1,631 6.1 -8.9°
Maximum altitude 22:20:20 50° 329° (NNW) 640 2.4 -9.5°
Enters shadow 22:23:55 12° 45° (NE) 1,645 3.9 -10.1°
